Simultaneous Nadir Overpasses (SNOs) Predictions

Prediction of SNOs between GOES-17 and NOAA-20 Satellite Orbit:

Table of predicted SNOs for the next 14.0 days since TLE Epoch: 11/26/2022
Index Date Time (GOES-17) GOES-17 Lat,Lon NOAA-20 Lat,Lon Distance(km) Time Diff (sec)
1 11/26/2022 10:39:28 0.01,-137.33 0.23,-138.29 109.41 80
2 11/27/2022 10:18:03 0.02,-137.33 -0.78,-133.76 406.68 80
3 11/28/2022 22:39:58 -0.02,-137.31 -0.39,-139.06 198.97 80
4 11/29/2022 22:23:53 -0.02,-137.30 0.62,-134.52 316.96 80
5 12/01/2022 10:42:59 0.02,-137.29 0.58,-139.78 283.89 80
6 12/02/2022 10:26:53 0.02,-137.29 -0.43,-135.25 231.95 80
7 12/03/2022 22:46:09 -0.02,-137.26 -0.73,-140.55 374.03 80
8 12/04/2022 22:30:03 -0.02,-137.25 0.28,-136.02 141.64 80
9 12/06/2022 10:49:10 0.03,-137.24 0.92,-141.27 459.90 80
10 12/07/2022 10:33:04 0.03,-137.22 -0.09,-136.74 55.31 80
11 12/09/2022 22:33:33 -0.04,-137.17 -0.10,-137.50 37.17 80
